{"data":{"norad_id":65746,"epoch":"2026-05-24T19:06:02.767104Z","epoch_age_seconds":95751,"freshness":"FRESH","line1":"1 65746U 25216N   26144.79586536  .00013748  00000+0  47530-3 0  9994","line2":"2 65746  53.1626 339.5352 0001569  91.8501 268.2680 15.30209174 38182","mean_motion":15.30209174,"eccentricity":0.0001569,"inclination_deg":53.1626,"raan_deg":339.5352,"arg_perigee_deg":91.8501,"mean_anomaly_deg":268.268,"bstar":0.0004753,"rev_number":3818,"period_min":94.104781520543,"perigee_km":474.11239100388,"apogee_km":476.26296428772,"semimajor_km":6853.3246776458,"source":"CELESTRAK","updated_at":"2026-05-25T13:38:20.931838Z"}}